| time (UTC) | temp F | wind direction | speed MPH | gust MPH | rain 1hr in | rain 24hr in | rain mn in | humidity % | barometer mb |
| 20260504181027 | 73 | 256 | 5.0 | 14.0 | 0.00 | 0.00 | 0.00 | 38 | 1004.5 |
| 20260504180534 | 73 | 238 | 4.0 | 12.0 | 0.00 | 0.00 | 0.00 | 39 | 1004.6 |
| 20260504180040 | 72 | 224 | 5.0 | 17.0 | 0.00 | 0.00 | 0.00 | 40 | 1004.6 |
| 20260504175551 | 72 | 262 | 8.0 | 18.0 | 0.00 | 0.00 | 0.00 | 40 | 1004.8 |
| 20260504175059 | 72 | 260 | 4.0 | 18.0 | 0.00 | 0.00 | 0.00 | 40 | 1004.8 |
| 20260504174505 | 72 | 195 | 4.0 | 14.0 | 0.00 | 0.00 | 0.00 | 41 | 1004.9 |
| 20260504174001 | 72 | 217 | 5.0 | 14.0 | 0.00 | 0.00 | 0.00 | 43 | 1004.9 |
| 20260504173552 | 71 | 188 | 3.0 | 13.0 | 0.00 | 0.00 | 0.00 | 44 | 1004.9 |
| 20260504173057 | 71 | 263 | 4.0 | 14.0 | 0.00 | 0.00 | 0.00 | 42 | 1005.1 |
| 20260504172600 | 70 | 217 | 4.0 | 19.0 | 0.00 | 0.00 | 0.00 | 44 | 1005.2 |
| 20260504172501 | 70 | 240 | 7.0 | 19.0 | 0.00 | 0.00 | 0.00 | 44 | 1005.2 |
| 20260504172029 | 70 | 258 | 9.0 | 19.0 | 0.00 | 0.00 | 0.00 | 41 | 1005.3 |
| 20260504171536 | 70 | 250 | 5.0 | 11.0 | 0.00 | 0.00 | 0.00 | 44 | 1005.4 |
| 20260504171048 | 70 | 250 | 6.0 | 14.0 | 0.00 | 0.00 | 0.00 | 43 | 1005.4 |
| 20260504170547 | 69 | 187 | 7.0 | 19.0 | 0.00 | 0.00 | 0.00 | 44 | 1005.6 |
| 20260504151025 | 65 | 221 | 3.0 | 9.0 | 0.00 | 0.00 | 0.00 | 50 | 1006.7 |
| 20260504150532 | 64 | 234 | 4.0 | 10.0 | 0.00 | 0.00 | 0.00 | 50 | 1006.8 |
| 20260504141005 | 62 | 235 | 4.0 | 10.0 | 0.00 | 0.00 | 0.00 | 52 | 1006.8 |
| 20260504140516 | 61 | 211 | 3.0 | 12.0 | 0.00 | 0.00 | 0.00 | 51 | 1006.9 |
| 20260504130550 | 58 | 215 | 3.0 | 16.0 | 0.00 | 0.00 | 0.00 | 54 | 1007.5 |
| 20260504110556 | 53 | 169 | 4.0 | 18.0 | 0.00 | 0.00 | 0.00 | 56 | 1007.2 |
| 20260504110118 | 53 | 149 | 7.0 | 14.0 | 0.00 | 0.00 | 0.00 | 55 | 1007.3 |
| 20260504100518 | 53 | 202 | 6.0 | 16.0 | 0.00 | 0.00 | 0.00 | 56 | 1007.2 |
| 20260504081512 | 52 | 159 | 6.0 | 19.0 | 0.00 | 0.00 | 0.00 | 55 | 1008.1 |
| 20260504081054 | 52 | 183 | 6.0 | 18.0 | 0.00 | 0.00 | 0.00 | 55 | 1008.2 |
| 20260504080504 | 52 | 176 | 5.0 | 15.0 | 0.00 | 0.00 | 0.00 | 55 | 1008.4 |
| 20260504050524 | 50 | 167 | 2.0 | 6.0 | 0.00 | 0.00 | 0.00 | 56 | 1010.5 |
| 20260504045545 | 51 | 176 | 1.0 | 5.0 | 0.00 | 0.00 | 0.00 | 56 | 1010.6 |
| 20260504045027 | 51 | 167 | 1.0 | 5.0 | 0.00 | 0.00 | 0.00 | 55 | 1010.7 |
| 20260504044541 | 51 | 213 | 1.0 | 6.0 | 0.00 | 0.00 | 0.00 | 55 | 1010.6 |
| 20260504044044 | 51 | 208 | 0.0 | 8.0 | 0.00 | 0.00 | 0.00 | 55 | 1010.6 |
| 20260504043551 | 51 | 173 | 2.0 | 8.0 | 0.00 | 0.00 | 0.00 | 54 | 1010.6 |
| 20260504043058 | 52 | 193 | 1.0 | 7.0 | 0.00 | 0.00 | 0.00 | 54 | 1010.6 |
| 20260504042505 | 52 | 217 | 2.0 | 9.0 | 0.00 | 0.00 | 0.00 | 54 | 1010.6 |
| 20260504042016 | 52 | 231 | 3.0 | 8.0 | 0.00 | 0.00 | 0.00 | 52 | 1010.7 |
| 20260504041510 | 52 | 234 | 2.0 | 10.0 | 0.00 | 0.00 | 0.00 | 52 | 1010.7 |
| 20260504041059 | 52 | 188 | 2.0 | 10.0 | 0.00 | 0.00 | 0.00 | 52 | 1010.6 |
| 20260504040507 | 53 | 206 | 5.0 | 11.0 | 0.00 | 0.00 | 0.00 | 52 | 1010.5 |
| 20260504040010 | 53 | 176 | 4.0 | 12.0 | 0.00 | 0.00 | 0.00 | 51 | 1010.5 |
| 20260504035548 | 53 | 184 | 5.0 | 12.0 | 0.00 | 0.00 | 0.00 | 51 | 1010.5 |
| 20260504035039 | 53 | 169 | 3.0 | 12.0 | 0.00 | 0.00 | 0.00 | 52 | 1010.5 |
| 20260504034553 | 53 | 188 | 3.0 | 12.0 | 0.00 | 0.00 | 0.00 | 52 | 1010.5 |
| 20260504034054 | 53 | 205 | 4.0 | 13.0 | 0.00 | 0.00 | 0.00 | 52 | 1010.6 |
| 20260504033508 | 53 | 235 | 6.0 | 13.0 | 0.00 | 0.00 | 0.00 | 51 | 1010.6 |
| 20260504033032 | 53 | 168 | 3.0 | 11.0 | 0.00 | 0.00 | 0.00 | 52 | 1010.6 |
| 20260504032508 | 53 | 175 | 5.0 | 11.0 | 0.00 | 0.00 | 0.00 | 52 | 1010.7 |
| 20260504032008 | 53 | 200 | 2.0 | 8.0 | 0.00 | 0.00 | 0.00 | 52 | 1010.8 |
| 20260504031556 | 52 | 182 | 3.0 | 7.0 | 0.00 | 0.00 | 0.00 | 52 | 1010.8 |
| 20260504031015 | 52 | 197 | 2.0 | 9.0 | 0.00 | 0.00 | 0.00 | 53 | 1010.8 |
| 20260504030520 | 53 | 171 | 2.0 | 9.0 | 0.00 | 0.00 | 0.00 | 53 | 1010.8 |
| 20260504025508 | 52 | 198 | 1.0 | 8.0 | 0.00 | 0.00 | 0.00 | 53 | 1010.9 |
| 20260504025027 | 52 | 219 | 1.0 | 8.0 | 0.00 | 0.00 | 0.00 | 53 | 1011.0 |
| 20260504024533 | 52 | 229 | 1.0 | 6.0 | 0.00 | 0.00 | 0.00 | 53 | 1010.9 |
| 20260504024040 | 52 | 168 | 1.0 | 5.0 | 0.00 | 0.00 | 0.00 | 54 | 1010.9 |
| 20260504023548 | 52 | 184 | 2.0 | 5.0 | 0.00 | 0.00 | 0.00 | 54 | 1010.9 |
| 20260504023058 | 52 | 223 | 0.0 | 5.0 | 0.00 | 0.00 | 0.00 | 54 | 1011.0 |
| 20260504022508 | 52 | 254 | 0.0 | 3.0 | 0.00 | 0.00 | 0.00 | 55 | 1011.0 |
| 20260504022016 | 52 | 195 | 0.0 | 3.0 | 0.00 | 0.00 | 0.00 | 54 | 1011.0 |
| 20260504021525 | 52 | 195 | 0.0 | 4.0 | 0.00 | 0.00 | 0.00 | 55 | 1011.1 |
| 20260504021027 | 52 | 182 | 0.0 | 5.0 | 0.00 | 0.00 | 0.00 | 55 | 1011.1 |
| 20260504020538 | 52 | 207 | 0.0 | 5.0 | 0.00 | 0.00 | 0.00 | 54 | 1011.1 |
| 20260504020034 | 53 | 225 | 0.0 | 1.0 | 0.00 | 0.00 | 0.00 | 55 | 1011.1 |
| 20260504015538 | 53 | 225 | 0.0 | 3.0 | 0.00 | 0.00 | 0.00 | 54 | 1011.1 |
| 20260504015051 | 53 | 225 | 0.0 | 3.0 | 0.00 | 0.00 | 0.00 | 54 | 1011.1 |
| 20260504014536 | 53 | 224 | 0.0 | 3.0 | 0.00 | 0.00 | 0.00 | 53 | 1011.1 |
| 20260504014046 | 53 | 221 | 0.0 | 5.0 | 0.00 | 0.00 | 0.00 | 53 | 1011.0 |
| 20260504013556 | 54 | 223 | 2.0 | 6.0 | 0.00 | 0.00 | 0.00 | 52 | 1011.0 |
| 20260504013002 | 54 | 202 | 2.0 | 6.0 | 0.00 | 0.00 | 0.00 | 51 | 1010.8 |
| 20260504012521 | 54 | 244 | 2.0 | 8.0 | 0.00 | 0.00 | 0.00 | 52 | 1010.8 |
| 20260504012027 | 54 | 190 | 2.0 | 8.0 | 0.00 | 0.00 | 0.00 | 51 | 1010.8 |
| 20260504011526 | 54 | 215 | 4.0 | 9.0 | 0.00 | 0.00 | 0.00 | 51 | 1010.8 |
| 20260504011035 | 54 | 211 | 4.0 | 12.0 | 0.00 | 0.00 | 0.00 | 51 | 1010.8 |
| 20260504010541 | 54 | 190 | 3.0 | 12.0 | 0.00 | 0.00 | 0.00 | 51 | 1010.8 |
| 20260504010057 | 54 | 207 | 3.0 | 9.0 | 0.00 | 0.00 | 0.00 | 51 | 1010.8 |
| 20260504005558 | 55 | 206 | 3.0 | 12.0 | 0.00 | 0.00 | 0.00 | 51 | 1010.8 |
| 20260504005002 | 55 | 290 | 4.0 | 15.0 | 0.00 | 0.00 | 0.00 | 50 | 1010.8 |
| 20260504004512 | 55 | 229 | 5.0 | 15.0 | 0.00 | 0.00 | 0.00 | 50 | 1010.7 |
| 20260504004053 | 55 | 215 | 3.0 | 9.0 | 0.00 | 0.00 | 0.00 | 50 | 1010.8 |
| 20260504003506 | 55 | 171 | 3.0 | 10.0 | 0.00 | 0.00 | 0.00 | 51 | 1010.7 |
| 20260504003048 | 55 | 231 | 5.0 | 11.0 | 0.00 | 0.00 | 0.00 | 50 | 1010.8 |
| 20260504002555 | 55 | 230 | 3.0 | 11.0 | 0.00 | 0.00 | 0.00 | 50 | 1010.8 |
| 20260504002006 | 55 | 252 | 5.0 | 15.0 | 0.00 | 0.00 | 0.00 | 50 | 1010.7 |
| 20260504001520 | 55 | 247 | 5.0 | 15.0 | 0.00 | 0.00 | 0.00 | 50 | 1010.7 |
| 20260504001022 | 55 | 234 | 7.0 | 14.0 | 0.00 | 0.00 | 0.00 | 50 | 1010.7 |
| 20260504000509 | 55 | 237 | 4.0 | 11.0 | 0.00 | 0.00 | 0.00 | 50 | 1010.8 |
| 20260504000021 | 55 | 227 | 3.0 | 10.0 | 0.00 | 0.00 | 0.00 | 50 | 1010.7 |
| 20260503235527 | 55 | 245 | 3.0 | 9.0 | 0.00 | 0.00 | 0.00 | 50 | 1010.8 |
| 20260503235035 | 56 | 177 | 3.0 | 17.0 | 0.00 | 0.00 | 0.00 | 50 | 1010.8 |
| 20260503234543 | 56 | 244 | 7.0 | 17.0 | 0.00 | 0.00 | 0.00 | 49 | 1010.9 |
| 20260503234036 | 56 | 235 | 5.0 | 14.0 | 0.00 | 0.00 | 0.00 | 48 | 1010.9 |
| 20260503233519 | 56 | 224 | 8.0 | 14.0 | 0.00 | 0.00 | 0.00 | 48 | 1010.9 |
| 20260503233029 | 56 | 242 | 6.0 | 16.0 | 0.00 | 0.00 | 0.00 | 49 | 1011.0 |
| 20260503232533 | 55 | 238 | 6.0 | 16.0 | 0.00 | 0.00 | 0.00 | 49 | 1011.0 |
| 20260503232045 | 55 | 240 | 7.0 | 16.0 | 0.00 | 0.00 | 0.00 | 49 | 1011.1 |
| 20260503231536 | 55 | 203 | 8.0 | 16.0 | 0.00 | 0.00 | 0.00 | 49 | 1011.1 |
| 20260503231045 | 56 | 231 | 6.0 | 16.0 | 0.00 | 0.00 | 0.00 | 49 | 1011.1 |
| 20260503230522 | 56 | 227 | 5.0 | 14.0 | 0.00 | 0.00 | 0.00 | 49 | 1011.1 |
| 20260503230033 | 56 | 244 | 6.0 | 12.0 | 0.00 | 0.00 | 0.00 | 48 | 1011.1 |
| 20260503225537 | 56 | 234 | 5.0 | 17.0 | 0.00 | 0.00 | 0.00 | 49 | 1011.1 |
| 20260503225031 | 56 | 241 | 6.0 | 18.0 | 0.00 | 0.00 | 0.00 | 48 | 1011.1 |
| 20260503224538 | 56 | 251 | 8.0 | 18.0 | 0.00 | 0.00 | 0.00 | 48 | 1011.1 |
| 20260503224045 | 55 | 252 | 7.0 | 12.0 | 0.00 | 0.00 | 0.00 | 48 | 1011.2 |
| 20260503223529 | 55 | 238 | 5.0 | 14.0 | 0.00 | 0.00 | 0.00 | 48 | 1011.1 |
| 20260503223025 | 55 | 279 | 8.0 | 17.0 | 0.00 | 0.00 | 0.00 | 47 | 1011.2 |
| 20260503222508 | 55 | 238 | 7.0 | 14.0 | 0.00 | 0.00 | 0.00 | 47 | 1011.2 |
| 20260503222051 | 56 | 246 | 6.0 | 23.0 | 0.00 | 0.00 | 0.00 | 48 | 1011.2 |
| 20260503221543 | 56 | 236 | 6.0 | 23.0 | 0.00 | 0.00 | 0.00 | 47 | 1011.2 |
| 20260503221043 | 56 | 244 | 9.0 | 20.0 | 0.00 | 0.00 | 0.00 | 46 | 1011.3 |
| 20260503220550 | 56 | 239 | 10.0 | 23.0 | 0.00 | 0.00 | 0.00 | 46 | 1011.2 |
| 20260503220112 | 56 | 242 | 9.0 | 20.0 | 0.00 | 0.00 | 0.00 | 47 | 1011.2 |
| 20260503215510 | 55 | 263 | 10.0 | 23.0 | 0.00 | 0.00 | 0.00 | 47 | 1011.2 |
| 20260503215057 | 55 | 222 | 10.0 | 23.0 | 0.00 | 0.00 | 0.00 | 48 | 1011.2 |
| 20260503214507 | 56 | 243 | 8.0 | 25.0 | 0.00 | 0.00 | 0.00 | 49 | 1011.2 |
| 20260503214022 | 56 | 258 | 9.0 | 19.0 | 0.00 | 0.00 | 0.00 | 47 | 1011.2 |
| 20260503213534 | 56 | 273 | 9.0 | 21.0 | 0.00 | 0.00 | 0.00 | 45 | 1011.1 |
| 20260503213039 | 56 | 261 | 11.0 | 29.0 | 0.00 | 0.00 | 0.00 | 43 | 1011.1 |
| 20260503212544 | 56 | 243 | 11.0 | 21.0 | 0.00 | 0.00 | 0.00 | 43 | 1011.1 |
| 20260503212051 | 56 | 225 | 13.0 | 25.0 | 0.00 | 0.00 | 0.00 | 43 | 1011.2 |
| 20260503211609 | 56 | 269 | 14.0 | 27.0 | 0.00 | 0.00 | 0.00 | 42 | 1011.2 |
| 20260503211501 | 56 | 239 | 14.0 | 27.0 | 0.00 | 0.00 | 0.00 | 43 | 1011.3 |
| 20260503211011 | 56 | 272 | 11.0 | 26.0 | 0.00 | 0.00 | 0.00 | 43 | 1011.3 |
| 20260503210523 | 56 | 246 | 13.0 | 26.0 | 0.00 | 0.00 | 0.00 | 42 | 1011.3 |
| 20260503210030 | 57 | 221 | 10.0 | 25.0 | 0.00 | 0.00 | 0.00 | 43 | 1011.3 |
| 20260503205535 | 57 | 224 | 13.0 | 26.0 | 0.00 | 0.00 | 0.00 | 41 | 1011.4 |
| 20260503205020 | 57 | 257 | 14.0 | 30.0 | 0.00 | 0.00 | 0.00 | 41 | 1011.3 |
| 20260503204526 | 57 | 258 | 15.0 | 30.0 | 0.00 | 0.00 | 0.00 | 41 | 1011.3 |
| 20260503204035 | 57 | 254 | 13.0 | 27.0 | 0.00 | 0.00 | 0.00 | 42 | 1011.3 |
| 20260503203519 | 57 | 236 | 12.0 | 27.0 | 0.00 | 0.00 | 0.00 | 42 | 1011.3 |
| 20260503203124 | 57 | 270 | 11.0 | 28.0 | 0.00 | 0.00 | 0.00 | 42 | 1011.4 |
| 20260503202505 | 58 | 235 | 14.0 | 26.0 | 0.00 | 0.00 | 0.00 | 42 | 1011.4 |
| 20260503202016 | 58 | 257 | 13.0 | 22.0 | 0.00 | 0.00 | 0.00 | 43 | 1011.5 |
| 20260503201552 | 58 | 290 | 10.0 | 22.0 | 0.00 | 0.00 | 0.00 | 44 | 1011.4 |
| 20260503201024 | 57 | 238 | 11.0 | 23.0 | 0.00 | 0.00 | 0.00 | 45 | 1011.4 |
| 20260503200527 | 57 | 246 | 13.0 | 30.0 | 0.00 | 0.00 | 0.00 | 44 | 1011.5 |
| 20260503200036 | 56 | 281 | 15.0 | 31.0 | 0.00 | 0.00 | 0.00 | 44 | 1011.6 |
| 20260503195516 | 56 | 264 | 13.0 | 26.0 | 0.00 | 0.00 | 0.00 | 47 | 1011.8 |
| 20260503195023 | 57 | 278 | 14.0 | 26.0 | 0.00 | 0.00 | 0.00 | 45 | 1011.8 |
| 20260503194511 | 56 | 265 | 15.0 | 26.0 | 0.00 | 0.00 | 0.00 | 44 | 1011.9 |
| 20260503194017 | 56 | 277 | 14.0 | 29.0 | 0.00 | 0.00 | 0.00 | 47 | 1011.9 |
| 20260503193600 | 56 | 261 | 12.0 | 29.0 | 0.00 | 0.00 | 0.00 | 46 | 1012.1 |
| 20260503193502 | 56 | 284 | 13.0 | 29.0 | 0.00 | 0.00 | 0.00 | 46 | 1012.0 |
| 20260503193005 | 56 | 307 | 13.0 | 28.0 | 0.00 | 0.00 | 0.00 | 46 | 1012.2 |
| 20260503192517 | 56 | 273 | 12.0 | 28.0 | 0.00 | 0.00 | 0.00 | 46 | 1012.2 |
| 20260503192102 | 56 | 278 | 14.0 | 24.0 | 0.00 | 0.00 | 0.00 | 46 | 1012.2 |
| 20260503191515 | 56 | 255 | 13.0 | 35.0 | 0.00 | 0.00 | 0.00 | 47 | 1012.3 |
| 20260503191027 | 56 | 249 | 12.0 | 35.0 | 0.00 | 0.00 | 0.00 | 46 | 1012.3 |
| 20260503190527 | 56 | 237 | 10.0 | 23.0 | 0.00 | 0.00 | 0.00 | 48 | 1012.4 |
| 20260503190020 | 55 | 242 | 13.0 | 23.0 | 0.00 | 0.00 | 0.00 | 48 | 1012.4 |
| 20260503185521 | 56 | 234 | 14.0 | 22.0 | 0.00 | 0.00 | 0.00 | 46 | 1012.5 |
| 20260503185020 | 55 | 246 | 12.0 | 24.0 | 0.00 | 0.00 | 0.00 | 47 | 1012.6 |
| 20260503184507 | 56 | 263 | 13.0 | 27.0 | 0.00 | 0.00 | 0.00 | 46 | 1012.7 |
| 20260503184009 | 55 | 227 | 11.0 | 27.0 | 0.00 | 0.00 | 0.00 | 48 | 1012.8 |
| 20260503183556 | 55 | 251 | 13.0 | 25.0 | 0.00 | 0.00 | 0.00 | 47 | 1012.7 |
| 20260503183502 | 55 | 264 | 14.0 | 25.0 | 0.00 | 0.00 | 0.00 | 47 | 1012.7 |
| 20260503183009 | 55 | 237 | 14.0 | 25.0 | 0.00 | 0.00 | 0.00 | 46 | 1012.9 |
| 20260503182512 | 55 | 253 | 14.0 | 24.0 | 0.00 | 0.00 | 0.00 | 48 | 1012.8 |
| 20260503182027 | 55 | 263 | 11.0 | 21.0 | 0.00 | 0.00 | 0.00 | 49 | 1012.9 |
| 20260503181601 | 55 | 246 | 12.0 | 20.0 | 0.00 | 0.00 | 0.00 | 49 | 1013.0 |